SCP
0 0 0 0 0 0 0 0 0 0 0 0 0 0 0 0 0 0 -0 -0 -0 0 0 0 0 -0 -0 0 0 -0 0 -0 -0 -0 -0 -0 -0 -0 -0 -0 -0 -0 -0 -0 -0 -0 -0 -0 -0
0 0 0 0 0 0 0 0 0 0 0 0 -0 0 0 0 0 0 -0 -0 -0 0 0 0 0 -0 0 -0 -0 -0 -0 -0 -0 -0 -0 -0 -0 -0 -0 -0 -0 -0 -0 -0 -0 -0 -0 -0 -0
0 0 0 0 0 0 0 0 0 0 0 0 0 0 0 0 0 -0 0 0 0 0 0 0 0 0 0 -0 -0 0 -0 -0 -0 -0 -0 -0 -0 -0 -0 -0 -0 -0 -0 -0 -0 -0 -0 -0 -0
0 0 0 0 0 0 0 0 0 0 0 0 0 0 0 0 -0 0 -0 -0 0 -0 0 0 0 0 0 0 0 0 -0 -0 -0 -0 -0 -0 -0 -0 -0 -0 -0 -0 -0 -0 -0 -0 -0 -0 -0
0 0 0 0 0 0 0 0 0 0 0 0 0 0 0 -0 -0 -0 -0 -0 -0 -0 0 0 0 0 0 0 0 0 -0 -0 -0 -0 -0 -0 -0 -0 -0 -0 -0 -0 -0 -0 -0 -0 -0 -0 -0
0 0 0 0 0 0 0 0 0 0 0 0 0 0 0 0 -0 0 -0 -0 -0 -0 0 0 0 0 0 0 0 0 0 -0 -0 -0 -0 -0 -0 -0 -0 -0 -0 -0 -0 -0 -0 -0 -0 -0 -0
0 0 0 0 0 0 0 0 0 0 0 0 0 0 0 -0 0 0 0 -0 -0 0 0 0 0 0 0 0 0 0 0 0 0 0 -0 -0 -0 -0 -0 -0 -0 -0 -0 -0 -0 -0 -0 -0 0
0 0 0 0 0 0 0 0 0 0 0 0 0 -0 0 -0 0 0 0 0 0 0 0 0 0 0 0 0 0 0 0 0 0 0 0 -0 -0 -0 -0 -0 -0 -0 -0 -0 -0 -0 0 0 0
0 0 0 0 0 0 0 0 0 0 0 0 0 0 -0 -0 -0 0 0 0 0 0 0 0 0 0 0 0 0 0 0 0 0 0 0 0 0 0 -0 -0 -0 -0 0 0 0 0 0 0 0
0 0 0 0 0 0 0 0 0 0 0 0 0 0 0 -0 -0 -0 0 -0 -0 0 0 0 0 -0 0 0 0 0 0 0 0 0 0 0 0 0 -0 -0 -0 0 0 0 0 0 0 0 0
0 0 0 0 0 0 0 0 0 0 0 0 0 0 0 -0 0 -0 -0 -0 -0 0 0 0 0 0 0 0 0 0 0 0 0 -0 -0 0 0 -0 0 0 0 0 0 0 0 0 0 0 0
0 0 0 0 0 0 0 0 0 0 0 0 0 0 0 0 0 0 -0 -0 0 0 0 0 0 0 0 0 0 0 0 0 0 -0 -0 0 -0 -0 0 0 0 0 0 0 0 0 0 0 0
0 0 0 0 0 0 0 0 0 0 0 0 0 0 0 0 0 -0 -0 0 0 0 0 0 0 0 0 0 0 0 0 0 -0 -0 -0 0 -0 0 0 0 0 0 0 0 0 0 0 0 0
0 -0 0 0 0 0 0 0 0 0 0 0 0 0 0 0 0 0 0 0 0 -0 0 0 0 0 0 0 0 0 0 0 0 0 0 0 0 0 0 0 0 0 0 0 0 0 0 0 0
0 0 -0 0 0 0 0 0 0 0 0 0 0 0 0 0 0 0 0 0 0 0 0 0 0 0 0 0 0 0 -0 0 0 0 0 0 0 0 0 0 0 0 0 0 0 0 0 0 0
0 0 -0 -0 0 0 0 0 0 0 0 0 0 0 0 0 0 0 0 0 0 0 0 0 0 0 0 0 0 0 0 0 0 0 0 0 0 0 0 0 0 0 0 0 0 0 0 0 0
0 0 0 0 0 0 0 0 0 0 0 0 0 0 0 0 0 0 0 0 0 0 0 0 0 0 0 0 0 0 0 0 0 0 0 0 0 0 0 0 0 0 0 0 0 0 0 0 0
0 0 0 0 0 0 0 0 0 0 0 0 0 0 0 0 0 0 0 0 0 0 0 0 0 0 0 0 0 0 0 0 0 0 0 0 0 0 0 0 0 0 0 0 0 0 0 0 0
0 0 0 0 0 0 0 0 0 0 0 0 0 0 0 0 0 0 0 0 0 0 0 0 0 0 0 0 0 0 0 0 0 0 0 0 0 0 0 0 0 0 0 0 0 0 0 0 0
0 0 0 0 0 0 0 0 0 0 0 0 0 0 0 0 0 0 0 0 0 0 0 0 0 0 0 0 0 0 0 0 0 0 0 0 0 0 0 0 0 0 0 0 0 0 0 0 0
0 0 0 0 0 0 0 0 0 0 0 0 0 0 0 0 0 0 0 0 0 0 0 0 0 0 0 0 0 0 0 0 0 0 0 0 0 0 0 0 0 0 0 0 0 0 0 0 0
0 0 0 0 0 0 0 0 0 0 0 0 0 0 0 0 0 0 0 0 0 0 0 0 0 0 0 0 0 0 0 0 0 0 0 0 0 0 0 0 0 0 0 0 0 0 0 0 0
0 0 0 0 0 0 0 0 0 0 0 0 0 0 0 0 0 0 0 0 0 0 0 0 0 0 0 0 0 0 0 0 0 0 0 0 0 0 0 0 0 0 0 0 0 0 0 0 0
0 0 0 0 0 0 0 0 0 0 0 0 0 0 0 0 0 0 0 0 0 0 0 0 0 0 0 0 0 0 0 0 0 0 0 0 0 0 0 0 0 0 0 0 0 0 0 0 0
0 0 0 0 0 0 0 0 0 0 0 0 0 0 0 0 0 0 0 0 0 0 0 0 0 0 0 0 0 0 0 0 0 0 0 0 0 0 0 0 0 0 0 0 0 0 0 0 0
0 0 0 0 0 0 0 0 0 0 0 0 0 0 0 0 0 0 0 0 0 0 0 0 0 0 0 0 0 0 0 0 0 0 0 0 0 0 0 0 0 0 0 0 0 0 0 0 0
0 0 0 0 0 0 0 0 0 0 0 0 0 0 0 0 0 0 0 0 0 0 0 0 0 0 0 0 0 0 0 0 0 0 0 0 0 0 0 0 0 0 0 0 0 0 0 0 0
0 0 0 0 0 0 0 0 0 0 0 0 0 0 0 0 0 0 0 0 0 0 0 0 0 0 0 0 0 0 0 0 0 0 0 0 0 0 0 0 0 0 0 0 0 0 0 0 0
0 0 0 0 0 0 0 0 0 0 0 0 0 0 0 0 0 0 0 0 0 0 0 0 0 0 0 0 0 0 0 0 0 0 0 0 0 0 0 0 0 0 0 0 0 0 0 0 0
0 0 0 0 0 0 0 0 0 0 -0 0 0 -0 -0 0 0 0 0 0 0 0 0 0 0 0 0 0 0 0 0 0 0 0 0 0 0 0 0 0 0 0 0 0 0 0 0 0 0
Wind_Speed_500mb
7 12 2 2 8 10 2 6 1 6 2 4 13 10 13 11 4 7 35 32 38 36 32 26 19 12 16 18 19 22 22 24 26 25 25 24 21 22 25 33 34 34 32 28 31 27 27 26 26
9 10 2 8 9 5 8 5 9 8 21 30 24 15 11 4 8 30 38 39 38 36 30 26 23 17 18 18 22 26 26 25 27 28 30 31 36 28 34 34 31 29 28 25 25 26 24 25 28
10 7 2 9 7 7 8 8 10 14 27 3 10 14 7 9 16 48 29 45 39 35 33 27 22 20 20 20 21 22 26 27 20 23 26 30 37 29 30 31 29 26 26 22 19 21 22 26 28
8 2 9 8 5 7 8 6 10 23 4 4 22 13 9 2 41 26 40 40 37 31 29 26 24 21 21 18 19 20 25 29 25 24 27 32 33 28 24 21 20 22 21 22 20 22 25 27 28
8 1 7 5 4 5 6 10 23 9 10 13 6 9 9 32 18 31 38 37 29 29 26 26 26 23 20 15 17 19 20 23 27 23 24 31 29 23 20 21 22 21 21 21 21 24 26 26 26
2 4 7 3 6 5 4 17 11 7 13 15 14 16 14 24 24 37 38 34 25 24 27 28 28 26 22 16 16 20 21 23 24 20 23 25 27 19 20 19 18 19 21 21 22 23 24 24 25
6 6 6 8 4 3 8 20 9 10 13 10 26 9 12 29 35 43 37 30 27 28 29 31 30 28 23 18 17 19 20 22 21 19 20 25 27 20 20 20 21 19 20 20 21 22 22 23 24
5 10 6 5 7 8 11 18 7 15 6 22 22 12 14 43 48 44 37 34 30 31 30 31 34 32 27 22 20 20 22 22 23 21 19 18 19 17 18 20 21 20 19 18 19 22 23 22 23
9 8 4 7 11 9 17 9 12 11 24 13 16 8 14 55 54 46 41 39 36 32 32 33 33 33 28 24 22 21 21 20 20 20 19 16 15 14 14 17 19 19 18 17 19 20 21 22 23
6 6 12 11 8 8 21 16 31 14 20 9 14 13 41 60 56 54 49 44 39 37 38 36 36 34 28 25 23 21 19 19 20 19 17 15 12 12 12 13 15 15 15 16 17 18 18 18 20
6 4 7 8 14 11 17 16 24 24 6 24 33 33 60 64 59 56 52 42 41 39 39 38 37 34 29 25 23 21 18 16 16 16 14 12 11 10 9 10 11 10 12 13 13 13 14 15 17
6 5 17 15 5 5 11 19 16 32 14 30 30 38 67 68 66 62 56 50 48 44 40 38 38 36 31 27 24 24 20 16 13 12 12 10 8 7 7 6 6 7 8 9 9 11 13 14 15
6 12 21 20 22 7 14 12 9 32 13 16 33 50 67 68 65 59 51 47 47 48 43 41 37 34 32 30 28 24 22 20 18 16 12 9 6 4 2 1 3 4 6 7 9 11 13 15 17
10 15 36 21 10 6 8 4 9 18 16 21 41 57 68 67 66 60 56 50 48 47 45 43 40 36 34 32 28 26 24 23 20 17 15 12 9 6 4 5 5 6 8 10 11 11 12 13 16
8 8 15 21 10 1 9 1 13 12 24 33 47 53 64 66 65 62 57 52 48 46 44 43 40 37 35 33 30 29 25 24 22 21 17 15 12 11 10 9 9 9 10 11 12 13 17 22 27
4 5 9 7 11 9 13 15 9 17 35 43 49 54 63 66 66 61 58 54 48 45 47 42 40 40 38 37 32 30 29 30 26 18 16 12 11 11 14 12 10 11 12 13 14 19 22 28 33
5 12 4 13 9 4 9 12 9 25 39 48 55 57 63 66 66 65 59 57 52 47 44 44 42 40 39 36 33 28 27 24 22 20 20 18 17 15 12 10 10 12 17 20 22 24 29 30 34
16 15 9 11 7 1 8 13 6 24 38 51 57 58 63 65 67 65 62 59 55 50 47 43 40 39 37 35 34 33 32 33 31 27 24 22 21 19 18 14 17 19 21 24 29 30 32 35 38
26 11 11 5 6 7 13 14 20 17 27 34 52 61 63 64 59 61 63 60 58 56 54 51 49 43 43 44 43 45 44 38 31 32 30 26 23 21 19 20 23 25 27 29 30 32 34 33 37
2 16 21 8 8 5 6 25 12 15 24 52 60 60 63 61 61 60 65 67 66 63 59 57 56 54 49 48 43 44 44 44 35 31 31 28 27 26 25 27 29 30 31 33 30 31 32 30 32
12 13 12 10 1 2 3 14 11 12 30 36 53 56 59 67 64 62 66 70 69 69 67 64 61 61 60 55 50 48 46 45 38 32 34 36 34 33 31 31 31 32 32 32 28 25 24 28 33
15 21 11 8 12 12 3 12 12 13 19 21 56 56 64 66 68 67 69 70 71 70 65 68 65 64 65 64 58 54 54 48 44 33 38 37 37 37 36 34 34 33 30 28 25 25 25 33 36
9 11 10 4 5 6 7 5 14 5 17 15 42 64 68 71 71 70 72 70 68 70 68 68 65 61 62 65 62 56 52 53 46 41 41 42 39 37 35 32 29 26 21 20 23 26 31 25 24
17 16 8 5 5 7 23 14 10 17 14 14 41 68 74 76 71 68 68 67 69 67 68 68 68 65 64 65 65 60 60 61 55 43 41 43 43 39 36 30 24 22 24 25 25 18 18 22 27
31 20 6 9 4 23 1 11 32 9 18 17 38 79 79 77 67 67 74 80 76 71 68 68 69 69 68 70 69 67 63 61 58 47 42 44 44 39 35 28 28 26 20 15 13 14 19 22 25
37 25 11 15 9 13 5 16 15 20 30 31 41 43 53 78 76 74 79 83 77 70 68 68 69 68 69 71 72 72 66 66 58 48 45 43 39 35 34 29 23 20 15 11 14 17 20 23 25
9 32 4 8 4 6 11 15 14 13 18 22 41 37 54 57 78 86 84 82 75 71 67 63 65 68 71 75 73 75 72 67 58 52 46 43 42 36 31 29 24 18 14 13 14 17 20 23 27
4 10 14 3 5 9 7 10 14 7 21 21 24 53 63 57 65 83 78 77 72 66 63 62 63 62 62 68 71 70 75 66 57 49 46 43 43 39 35 30 23 17 14 13 14 17 20 25 31
11 11 7 5 7 7 1 13 15 21 22 23 33 57 66 63 63 75 77 71 63 61 60 57 56 55 56 58 62 68 69 67 59 52 48 44 44 42 37 30 23 18 15 14 15 18 24 29 33
17 26 30 14 22 3 1 18 4 17 16 21 35 38 45 48 54 61 71 65 62 57 56 54 52 52 49 47 54 66 69 63 58 53 51 50 47 42 35 27 22 17 15 15 17 22 25 29 32
Wind_Direction_500mb
301 308 314 147 54 64 241 233 305 132 168 253 137 149 148 77 146 179 145 155 159 158 153 147 147 124 101 86 82 88 89 88 93 98 105 111 116 115 105 96 94 94 91 80 77 75 68 67 63
297 298 182 95 85 64 270 267 196 183 136 108 90 82 57 73 107 139 146 153 158 161 155 151 142 131 108 92 85 92 92 89 90 89 103 100 90 95 101 95 96 94 93 84 70 63 60 59 58
300 287 166 92 110 173 221 215 178 144 148 135 107 80 80 125 136 145 151 153 158 156 151 149 148 141 124 98 95 102 104 100 93 92 99 99 97 101 97 99 93 95 88 85 68 62 55 51 49
306 268 55 84 193 243 204 198 161 138 206 144 122 71 86 128 144 146 151 154 158 156 155 154 154 150 133 110 109 117 119 121 106 94 94 110 106 107 90 96 80 72 81 67 59 58 52 51 48
274 19 62 83 255 272 257 165 157 141 142 140 139 145 97 141 147 147 149 151 157 159 164 163 162 156 140 110 103 104 108 125 118 103 99 111 96 102 80 76 74 70 73 73 64 51 48 50 47
273 70 69 171 258 287 248 168 169 142 148 144 117 113 137 174 166 156 152 150 157 168 169 164 160 160 147 125 113 118 119 127 127 115 99 106 104 100 81 75 77 78 73 67 58 49 47 52 50
105 82 189 176 243 289 182 166 168 162 153 192 147 100 154 175 173 158 158 167 171 168 171 165 164 159 151 136 126 120 115 117 114 115 111 99 106 97 80 76 76 78 72 63 51 48 46 49 49
66 91 109 254 189 237 179 163 193 167 168 146 160 171 176 175 165 160 165 177 180 176 180 173 169 164 159 146 139 129 118 121 120 120 116 108 106 97 83 76 73 69 66 63 55 46 44 45 45
16 67 194 224 157 235 172 144 153 168 153 163 195 180 182 166 164 165 165 169 177 183 188 179 173 170 166 156 147 138 133 124 122 118 120 120 117 104 86 79 74 68 69 69 65 55 45 42 43
139 115 215 209 210 222 188 176 160 154 164 202 189 187 166 167 169 169 168 168 175 184 188 182 179 175 172 163 157 152 146 144 136 132 123 117 112 109 99 87 77 71 68 64 61 54 51 46 39
82 204 344 286 251 239 196 184 173 150 213 209 193 170 170 172 174 178 175 180 179 180 185 182 183 183 177 171 169 163 165 160 147 134 129 130 119 114 109 94 82 74 62 56 51 47 43 38 38
68 256 312 292 321 194 193 181 180 179 204 219 209 189 176 181 180 185 185 181 183 182 183 182 185 188 185 181 183 180 177 173 161 158 157 147 142 127 105 86 74 56 48 40 35 29 26 28 28
89 281 304 306 304 265 204 199 196 204 216 211 192 188 185 188 188 187 189 185 188 185 186 186 187 189 193 192 194 193 190 186 190 188 184 182 177 162 115 54 29 17 7 3 4 9 14 19 12
198 276 287 285 303 215 177 166 192 203 214 192 189 191 193 194 193 191 193 191 192 192 189 192 191 192 198 201 202 201 204 205 203 204 207 208 212 217 238 271 304 317 331 340 344 345 344 343 343
321 301 288 247 186 179 144 40 230 202 195 184 188 193 196 199 199 199 195 199 197 198 195 201 199 199 205 206 207 210 211 217 221 220 222 220 228 238 250 267 282 305 325 330 339 350 349 337 328
58 279 255 299 183 151 146 251 244 199 192 190 195 192 198 202 207 205 203 203 206 205 206 206 211 212 213 217 220 219 218 226 227 219 229 241 259 268 255 269 292 309 320 333 341 326 320 319 320
227 243 275 314 248 130 141 248 267 202 196 199 198 197 201 209 211 214 210 211 212 211 211 213 214 218 221 217 220 221 224 226 220 228 239 245 257 263 284 301 309 316 323 319 312 311 309 309 314
176 213 251 226 222 266 157 252 286 209 202 208 203 203 207 215 220 217 215 216 218 219 220 222 222 217 220 221 223 226 222 227 233 239 243 248 264 264 272 283 285 292 290 299 303 302 301 318 316
204 179 230 245 244 187 206 235 243 212 218 220 219 210 214 220 224 224 224 220 223 224 224 225 226 223 221 220 221 222 225 233 240 245 244 252 260 268 271 275 279 283 289 295 301 302 306 314 312
112 217 228 294 339 256 191 248 248 200 223 222 222 218 219 223 226 225 223 224 225 227 225 227 228 231 230 230 232 231 230 237 248 246 251 255 257 258 260 267 279 284 285 294 297 301 306 312 316
202 217 234 233 124 130 340 286 233 226 229 233 234 236 230 227 226 224 221 221 224 225 226 227 231 236 234 234 232 236 234 236 242 242 239 243 247 254 260 266 269 274 284 286 288 295 301 308 306
194 194 209 157 157 230 348 266 261 217 232 211 229 229 235 235 232 229 226 223 223 226 227 232 235 235 234 232 233 232 237 239 245 243 240 242 246 250 256 261 266 271 274 275 276 287 292 294 303
191 152 155 158 136 104 231 239 238 122 238 233 234 229 232 236 232 232 228 228 228 228 229 233 233 232 231 232 231 235 234 239 243 250 240 243 246 250 256 259 262 264 262 258 264 273 292 302 310
145 91 18 48 119 247 211 198 245 206 196 225 229 231 231 234 233 229 227 226 226 227 227 228 229 230 229 230 231 230 233 238 238 246 240 242 246 248 251 252 245 242 250 254 266 276 297 312 317
167 150 173 227 184 234 8 163 239 225 220 213 218 228 231 232 230 224 222 223 224 225 224 226 229 230 229 230 231 229 233 239 242 245 243 241 243 241 241 230 241 242 234 238 264 292 304 310 315
193 177 174 188 207 224 108 237 249 225 238 239 246 243 243 240 233 227 224 223 225 225 226 226 230 232 232 231 229 227 231 233 236 242 242 241 232 226 225 226 215 210 220 249 279 295 304 309 315
170 198 238 81 28 77 203 280 294 259 273 260 245 240 238 237 231 228 221 221 222 223 227 230 235 237 235 232 227 224 225 229 227 233 235 225 218 229 220 208 206 214 232 261 283 298 307 315 322
100 173 208 186 206 234 249 281 232 233 230 227 238 240 240 238 234 227 220 219 219 223 230 235 238 237 234 230 224 221 221 227 221 224 237 217 220 210 201 204 211 228 248 265 288 303 314 324 325
143 209 205 321 191 205 228 260 216 205 223 229 231 240 246 238 234 225 217 216 221 227 233 237 235 231 224 221 219 214 218 217 217 224 224 215 204 198 201 208 218 228 250 272 292 312 323 325 324
201 203 201 195 207 237 25 255 197 238 275 279 277 275 267 255 238 229 218 217 222 228 233 234 229 224 218 212 205 209 211 211 217 217 213 199 199 200 205 212 223 234 256 283 311 320 323 324 323
Wind_Speed_850mb
7 12 2 2 8 10 2 6 1 6 2 4 13 10 13 11 4 7 35 32 38 36 32 26 19 12 16 18 19 22 22 24 26 25 25 24 21 22 25 33 34 34 32 28 31 27 27 26 26
9 10 2 8 9 5 8 5 9 8 21 30 24 15 11 4 8 30 38 39 38 36 30 26 23 17 18 18 22 26 26 25 27 28 30 31 36 28 34 34 31 29 28 25 25 26 24 25 28
10 7 2 9 7 7 8 8 10 14 27 3 10 14 7 9 16 48 29 45 39 35 33 27 22 20 20 20 21 22 26 27 20 23 26 30 37 29 30 31 29 26 26 22 19 21 22 26 28
8 2 9 8 5 7 8 6 10 23 4 4 22 13 9 2 41 26 40 40 37 31 29 26 24 21 21 18 19 20 25 29 25 24 27 32 33 28 24 21 20 22 21 22 20 22 25 27 28
8 1 7 5 4 5 6 10 23 9 10 13 6 9 9 32 18 31 38 37 29 29 26 26 26 23 20 15 17 19 20 23 27 23 24 31 29 23 20 21 22 21 21 21 21 24 26 26 26
2 4 7 3 6 5 4 17 11 7 13 15 14 16 14 24 24 37 38 34 25 24 27 28 28 26 22 16 16 20 21 23 24 20 23 25 27 19 20 19 18 19 21 21 22 23 24 24 25
6 6 6 8 4 3 8 20 9 10 13 10 26 9 12 29 35 43 37 30 27 28 29 31 30 28 23 18 17 19 20 22 21 19 20 25 27 20 20 20 21 19 20 20 21 22 22 23 24
5 10 6 5 7 8 11 18 7 15 6 22 22 12 14 43 48 44 37 34 30 31 30 31 34 32 27 22 20 20 22 22 23 21 19 18 19 17 18 20 21 20 19 18 19 22 23 22 23
9 8 4 7 11 9 17 9 12 11 24 13 16 8 14 55 54 46 41 39 36 32 32 33 33 33 28 24 22 21 21 20 20 20 19 16 15 14 14 17 19 19 18 17 19 20 21 22 23
6 6 12 11 8 8 21 16 31 14 20 9 14 13 41 60 56 54 49 44 39 37 38 36 36 34 28 25 23 21 19 19 20 19 17 15 12 12 12 13 15 15 15 16 17 18 18 18 20
6 4 7 8 14 11 17 16 24 24 6 24 33 33 60 64 59 56 52 42 41 39 39 38 37 34 29 25 23 21 18 16 16 16 14 12 11 10 9 10 11 10 12 13 13 13 14 15 17
6 5 17 15 5 5 11 19 16 32 14 30 30 38 67 68 66 62 56 50 48 44 40 38 38 36 31 27 24 24 20 16 13 12 12 10 8 7 7 6 6 7 8 9 9 11 13 14 15
6 12 21 20 22 7 14 12 9 32 13 16 33 50 67 68 65 59 51 47 47 48 43 41 37 34 32 30 28 24 22 20 18 16 12 9 6 4 2 1 3 4 6 7 9 11 13 15 17
10 15 36 21 10 6 8 4 9 18 16 21 41 57 68 67 66 60 56 50 48 47 45 43 40 36 34 32 28 26 24 23 20 17 15 12 9 6 4 5 5 6 8 10 11 11 12 13 16
8 8 15 21 10 1 9 1 13 12 24 33 47 53 64 66 65 62 57 52 48 46 44 43 40 37 35 33 30 29 25 24 22 21 17 15 12 11 10 9 9 9 10 11 12 13 17 22 27
4 5 9 7 11 9 13 15 9 17 35 43 49 54 63 66 66 61 58 54 48 45 47 42 40 40 38 37 32 30 29 30 26 18 16 12 11 11 14 12 10 11 12 13 14 19 22 28 33
5 12 4 13 9 4 9 12 9 25 39 48 55 57 63 66 66 65 59 57 52 47 44 44 42 40 39 36 33 28 27 24 22 20 20 18 17 15 12 10 10 12 17 20 22 24 29 30 34
16 15 9 11 7 1 8 13 6 24 38 51 57 58 63 65 67 65 62 59 55 50 47 43 40 39 37 35 34 33 32 33 31 27 24 22 21 19 18 14 17 19 21 24 29 30 32 35 38
26 11 11 5 6 7 13 14 20 17 27 34 52 61 63 64 59 61 63 60 58 56 54 51 49 43 43 44 43 45 44 38 31 32 30 26 23 21 19 20 23 25 27 29 30 32 34 33 37
2 16 21 8 8 5 6 25 12 15 24 52 60 60 63 61 61 60 65 67 66 63 59 57 56 54 49 48 43 44 44 44 35 31 31 28 27 26 25 27 29 30 31 33 30 31 32 30 32
12 13 12 10 1 2 3 14 11 12 30 36 53 56 59 67 64 62 66 70 69 69 67 64 61 61 60 55 50 48 46 45 38 32 34 36 34 33 31 31 31 32 32 32 28 25 24 28 33
15 21 11 8 12 12 3 12 12 13 19 21 56 56 64 66 68 67 69 70 71 70 65 68 65 64 65 64 58 54 54 48 44 33 38 37 37 37 36 34 34 33 30 28 25 25 25 33 36
9 11 10 4 5 6 7 5 14 5 17 15 42 64 68 71 71 70 72 70 68 70 68 68 65 61 62 65 62 56 52 53 46 41 41 42 39 37 35 32 29 26 21 20 23 26 31 25 24
17 16 8 5 5 7 23 14 10 17 14 14 41 68 74 76 71 68 68 67 69 67 68 68 68 65 64 65 65 60 60 61 55 43 41 43 43 39 36 30 24 22 24 25 25 18 18 22 27
31 20 6 9 4 23 1 11 32 9 18 17 38 79 79 77 67 67 74 80 76 71 68 68 69 69 68 70 69 67 63 61 58 47 42 44 44 39 35 28 28 26 20 15 13 14 19 22 25
37 25 11 15 9 13 5 16 15 20 30 31 41 43 53 78 76 74 79 83 77 70 68 68 69 68 69 71 72 72 66 66 58 48 45 43 39 35 34 29 23 20 15 11 14 17 20 23 25
9 32 4 8 4 6 11 15 14 13 18 22 41 37 54 57 78 86 84 82 75 71 67 63 65 68 71 75 73 75 72 67 58 52 46 43 42 36 31 29 24 18 14 13 14 17 20 23 27
4 10 14 3 5 9 7 10 14 7 21 21 24 53 63 57 65 83 78 77 72 66 63 62 63 62 62 68 71 70 75 66 57 49 46 43 43 39 35 30 23 17 14 13 14 17 20 25 31
11 11 7 5 7 7 1 13 15 21 22 23 33 57 66 63 63 75 77 71 63 61 60 57 56 55 56 58 62 68 69 67 59 52 48 44 44 42 37 30 23 18 15 14 15 18 24 29 33
17 26 30 14 22 3 1 18 4 17 16 21 35 38 45 48 54 61 71 65 62 57 56 54 52 52 49 47 54 66 69 63 58 53 51 50 47 42 35 27 22 17 15 15 17 22 25 29 32
Wind_Direction_850mb
301 308 314 147 54 64 241 233 305 132 168 253 137 149 148 77 146 179 145 155 159 158 153 147 147 124 101 86 82 88 89 88 93 98 105 111 116 115 105 96 94 94 91 80 77 75 68 67 63
297 298 182 95 85 64 270 267 196 183 136 108 90 82 57 73 107 139 146 153 158 161 155 151 142 131 108 92 85 92 92 89 90 89 103 100 90 95 101 95 96 94 93 84 70 63 60 59 58
300 287 166 92 110 173 221 215 178 144 148 135 107 80 80 125 136 145 151 153 158 156 151 149 148 141 124 98 95 102 104 100 93 92 99 99 97 101 97 99 93 95 88 85 68 62 55 51 49
306 268 55 84 193 243 204 198 161 138 206 144 122 71 86 128 144 146 151 154 158 156 155 154 154 150 133 110 109 117 119 121 106 94 94 110 106 107 90 96 80 72 81 67 59 58 52 51 48
274 19 62 83 255 272 257 165 157 141 142 140 139 145 97 141 147 147 149 151 157 159 164 163 162 156 140 110 103 104 108 125 118 103 99 111 96 102 80 76 74 70 73 73 64 51 48 50 47
273 70 69 171 258 287 248 168 169 142 148 144 117 113 137 174 166 156 152 150 157 168 169 164 160 160 147 125 113 118 119 127 127 115 99 106 104 100 81 75 77 78 73 67 58 49 47 52 50
105 82 189 176 243 289 182 166 168 162 153 192 147 100 154 175 173 158 158 167 171 168 171 165 164 159 151 136 126 120 115 117 114 115 111 99 106 97 80 76 76 78 72 63 51 48 46 49 49
66 91 109 254 189 237 179 163 193 167 168 146 160 171 176 175 165 160 165 177 180 176 180 173 169 164 159 146 139 129 118 121 120 120 116 108 106 97 83 76 73 69 66 63 55 46 44 45 45
16 67 194 224 157 235 172 144 153 168 153 163 195 180 182 166 164 165 165 169 177 183 188 179 173 170 166 156 147 138 133 124 122 118 120 120 117 104 86 79 74 68 69 69 65 55 45 42 43
139 115 215 209 210 222 188 176 160 154 164 202 189 187 166 167 169 169 168 168 175 184 188 182 179 175 172 163 157 152 146 144 136 132 123 117 112 109 99 87 77 71 68 64 61 54 51 46 39
82 204 344 286 251 239 196 184 173 150 213 209 193 170 170 172 174 178 175 180 179 180 185 182 183 183 177 171 169 163 165 160 147 134 129 130 119 114 109 94 82 74 62 56 51 47 43 38 38
68 256 312 292 321 194 193 181 180 179 204 219 209 189 176 181 180 185 185 181 183 182 183 182 185 188 185 181 183 180 177 173 161 158 157 147 142 127 105 86 74 56 48 40 35 29 26 28 28
89 281 304 306 304 265 204 199 196 204 216 211 192 188 185 188 188 187 189 185 188 185 186 186 187 189 193 192 194 193 190 186 190 188 184 182 177 162 115 54 29 17 7 3 4 9 14 19 12
198 276 287 285 303 215 177 166 192 203 214 192 189 191 193 194 193 191 193 191 192 192 189 192 191 192 198 201 202 201 204 205 203 204 207 208 212 217 238 271 304 317 331 340 344 345 344 343 343
321 301 288 247 186 179 144 40 230 202 195 184 188 193 196 199 199 199 195 199 197 198 195 201 199 199 205 206 207 210 211 217 221 220 222 220 228 238 250 267 282 305 325 330 339 350 349 337 328
58 279 255 299 183 151 146 251 244 199 192 190 195 192 198 202 207 205 203 203 206 205 206 206 211 212 213 217 220 219 218 226 227 219 229 241 259 268 255 269 292 309 320 333 341 326 320 319 320
227 243 275 314 248 130 141 248 267 202 196 199 198 197 201 209 211 214 210 211 212 211 211 213 214 218 221 217 220 221 224 226 220 228 239 245 257 263 284 301 309 316 323 319 312 311 309 309 314
176 213 251 226 222 266 157 252 286 209 202 208 203 203 207 215 220 217 215 216 218 219 220 222 222 217 220 221 223 226 222 227 233 239 243 248 264 264 272 283 285 292 290 299 303 302 301 318 316
204 179 230 245 244 187 206 235 243 212 218 220 219 210 214 220 224 224 224 220 223 224 224 225 226 223 221 220 221 222 225 233 240 245 244 252 260 268 271 275 279 283 289 295 301 302 306 314 312
112 217 228 294 339 256 191 248 248 200 223 222 222 218 219 223 226 225 223 224 225 227 225 227 228 231 230 230 232 231 230 237 248 246 251 255 257 258 260 267 279 284 285 294 297 301 306 312 316
202 217 234 233 124 130 340 286 233 226 229 233 234 236 230 227 226 224 221 221 224 225 226 227 231 236 234 234 232 236 234 236 242 242 239 243 247 254 260 266 269 274 284 286 288 295 301 308 306
194 194 209 157 157 230 348 266 261 217 232 211 229 229 235 235 232 229 226 223 223 226 227 232 235 235 234 232 233 232 237 239 245 243 240 242 246 250 256 261 266 271 274 275 276 287 292 294 303
191 152 155 158 136 104 231 239 238 122 238 233 234 229 232 236 232 232 228 228 228 228 229 233 233 232 231 232 231 235 234 239 243 250 240 243 246 250 256 259 262 264 262 258 264 273 292 302 310
145 91 18 48 119 247 211 198 245 206 196 225 229 231 231 234 233 229 227 226 226 227 227 228 229 230 229 230 231 230 233 238 238 246 240 242 246 248 251 252 245 242 250 254 266 276 297 312 317
167 150 173 227 184 234 8 163 239 225 220 213 218 228 231 232 230 224 222 223 224 225 224 226 229 230 229 230 231 229 233 239 242 245 243 241 243 241 241 230 241 242 234 238 264 292 304 310 315
193 177 174 188 207 224 108 237 249 225 238 239 246 243 243 240 233 227 224 223 225 225 226 226 230 232 232 231 229 227 231 233 236 242 242 241 232 226 225 226 215 210 220 249 279 295 304 309 315
170 198 238 81 28 77 203 280 294 259 273 260 245 240 238 237 231 228 221 221 222 223 227 230 235 237 235 232 227 224 225 229 227 233 235 225 218 229 220 208 206 214 232 261 283 298 307 315 322
100 173 208 186 206 234 249 281 232 233 230 227 238 240 240 238 234 227 220 219 219 223 230 235 238 237 234 230 224 221 221 227 221 224 237 217 220 210 201 204 211 228 248 265 288 303 314 324 325
143 209 205 321 191 205 228 260 216 205 223 229 231 240 246 238 234 225 217 216 221 227 233 237 235 231 224 221 219 214 218 217 217 224 224 215 204 198 201 208 218 228 250 272 292 312 323 325 324
201 203 201 195 207 237 25 255 197 238 275 279 277 275 267 255 238 229 218 217 222 228 233 234 229 224 218 212 205 209 211 211 217 217 213 199 199 200 205 212 223 234 256 283 311 320 323 324 323